Regional Weather Roundup
Issued by NWS Charleston, SC

Current Version | Previous Version | Text Only | Print | Product List | Glossary Off
Versions: 1 2 3 4 5 6 7 8 9 10 11 12 13 14 15 16 17 18 19 20 21 22 23 24 25 26 27 28 29 30 31 32 33 34 35 36 37 38 39 40 41 42 43 44 45 46 47 48 49 50

597
ASUS42 KCHS 300913
RWRCHS

REGIONAL WEATHER ROUNDUP
NATIONAL WEATHER SERVICE CHARLESTON SC
500 AM EDT SAT APR 30 2016

NOTE: "FAIR" INDICATES FEW OR NO CLOUDS BELOW 12,000 FEET WITH NO
SIGNIFICANT WEATHER AND/OR OBSTRUCTIONS TO VISIBILITY.

NOT ALL STATIONS ARE QUALITY CONTROLLED. USE DATA WITH CAUTION...
ESPECIALLY DEWPOINT OBSERVATIONS.

SCZ027-030-031-034>040-042>050-301000-
...SOUTHEAST SOUTH CAROLINA...

CITY           SKY/WX    TMP DP  RH WIND       PRES   REMARKS
N CHARLESTON   CLEAR     67  65  93 NE3       29.98R
WATERFRONT PRK   N/A     70  70 100 VRB2      29.96R
MOUNT PLEASANT FAIR      64  64 100 CALM      29.99R FOG
JOHNS ISLAND   FOG       66  64  94 CALM      29.98S VSB 1/4
PINOPOLIS        N/A     68  68 100 VRB2      29.90F
MONCKS CORNER  LGT RAIN  63  61  94 CALM      29.98S VSB 1/4
SUMMERVILLE    FOG       68  68 100 CALM      29.98S VSB 1/2
BEAUFORT MCAS  MOCLDY    69  67  93 CALM      29.97R FOG
BEAUFORT ARPT  FAIR      70  68  94 CALM      29.96S FOG
HILTON HEAD IS CLOUDY    72  72 100 S3        29.98R FOG
WALTERBORO     FOG       70  70 100 E3        29.98S VSB 1/4
ALLENDALE      CLOUDY    70  68  94 CALM      29.96S FOG

...SOUTHERN MIDLANDS AND PEE DEE...

CITY           SKY/WX    TMP DP  RH WIND       PRES   REMARKS
GEORGETOWN     FOG       61  59  94 CALM      30.01R VSB 1/2
KINGSTREE      FOG       66  64  94 SE5       29.99S VSB 1/2
ORANGEBURG     CLOUDY    66  65  96 S6        29.98S FOG
BARNWELL       CLOUDY    70  70 100 S6        29.97S FOG
AIKEN          FAIR      61  59  94 SE5       30.00S
MANNING        NOT AVBL
COLUMBIA       MOCLDY    66  62  87 E5        29.97R
SUMTER         CLOUDY    66  66 100 SE5       29.96S FOG
FLORENCE       CLOUDY    69  66  90 S7        29.99S
MYRTLE BEACH   CLEAR     66  61  82 CALM      30.02R
N MYRTLE BEACH PTCLDY    63  62  97 NE3       30.00S FOG

$$

GAZ063-065-086>088-099>101-113>116-118-119-134>141-150-301000-
...SOUTHEAST GEORGIA...

CITY           SKY/WX    TMP DP  RH WIND       PRES   REMARKS
SAVANNAH ARPT  CLEAR     69  66  90 CALM      29.97R FOG
HUNTER AAF     CLEAR     70  70 100 SE2       29.94S
FORT STEWART   FOG       67  66  97 CALM      29.94S VSB 1/4
STATESBORO     CLEAR     66  65  99 CALM      29.95F
SYLVANIA       FOG       69  69 100 CALM      29.96F VSB 1/4
CLAXTON        FAIR      62  61  99 CALM      29.95F

...CSRA...CENTRAL AND FAR SOUTHEAST GEORGIA...

CITY           SKY/WX    TMP DP  RH WIND       PRES   REMARKS
THOMSON        CLEAR     61  61 100 CALM      30.00R
AUGUSTA-BUSH   CLEAR     61  61 100 SW3       29.95S
AUGUSTA-DANIEL CLEAR     67  62  84 SE6       29.96S
SWAINSBORO     FAIR      66  63  88 SE3       29.95S
VIDALIA        CLEAR     66  63  88 CALM      29.95S
EASTMAN          N/A    N/A N/A N/A CALM      29.96R FOG
HAZLEHURST     FAIR      70  70 100 CALM      29.93R
ALMA           CLEAR     66  66 100 E3        29.93F FOG
WAYCROSS       PTCLDY    67  67 100 CALM      29.93F FOG
JESUP          FOG       68  66  94 CALM      29.95S VSB<1/4
BAXLEY         FAIR      68  68 100 CALM      29.94S FOG
BRUNSWICK      MOCLDY    70  68  94 CALM      29.96S FOG
SAINT SIMONS   CLOUDY    71  71 100 SE5       29.95S FOG

$$

SCZ027-028-034-036>038-045-046-048>050-GAZ119-141-301000-
...LAKE AND SUPPLEMENTAL COASTAL OBSERVATIONS...

STATION/POSITION TIME  TEMP    WIND        PRES    WAVE   SWELL
                       AIR SEA DIR/SP/G            HT/PER HT/PER/DIR
                 (UTC) (F)     (DEG/KT/KT) (MB)    (FT/S) (FT/S/D)
WINYAH BAY       0745   70     110/  5     1015.0
LAKE MURRAY      0800   71     130/  4/  7 1014.2S
ACE BASIN NERRS  0745   68        CALM     1015.0
FORT PULASKI     0800   71 72  130/  2/  3 1014.8F
SAPELO ISLAND    0800   72     200/  5     1014.0S

$$

ANZ835-935-AMZ111-154-330-350-352-354-370-450-454-472-301000-
...C-MAN AND BUOY OBSERVATIONS...

STATION/POSITION TIME  TEMP    WIND        PRES    WAVE   SWELL
                       AIR SEA DIR/SP/G            HT/PER HT/PER/DIR
                 (UTC) (F)     (DEG/KT/KT) (MB)    (FT/S) (FT/S/D)
BUOY 41004       0850   74 72  100/  8/  8 1014.9R   2/ 5   2/ 5
BUOY 41008       NOT AVBL
FOLLY BEACH CMAN 0800   71      70/  4/  4 1015.1F
CAPERS NEARSHORE 0808   70 70   60/  4/  6 1014.9S
FRIPP NEARSHORE  0808   72 71  150/  4/  6 1013.8F


STATION/POSITION TIME  TEMP    WIND        PRES    WAVE   SWELL
                       AIR SEA DIR/SP/G            HT/PER HT/PER/DIR
                 (UTC) (F)     (DEG/KT/KT) (MB)    (FT/S) (FT/S/D)
5E ST. MARYS GA  0821      72                N/A     1/10
FRYING PAN BUOY  0800   70 70  100/  2/  2 1015.3R
BUOY 41025       0850   60 74   20/ 17/ 21 1017.2R   4/ 9   2/ 40/ 9
CAPE LOOKOUT NC  0800   63      40/ 12/ 14 1016.7R
BUOY 41002       0850   71 71   50/ 10/ 12 1016.0R   3/10   2/ 70/10
BUOY 41010       0820   75 77  170/  6/  8 1014.5R
ST AUGUSTINE FL  0900   72 70  140/  2/  2 1014.7F


$$




USA.gov is the U.S. government's official web portal to all federal, state and local government web resources and services.